Miscellaneous Local Product
Issued by NWS North Platte, NE

Home | Current Version | Previous Version | Text Only | Print | Product List | Glossary On
Versions: 1 2 3 4 5 6 7 8 9 10 11 12 13 14 15 16 17 18 19 20 21 22 23 24 25 26 27 28 29 30 31 32 33 34 35 36 37 38 39 40 41 42 43 44 45 46 47 48 49 50
000
AXUS43 KLBF 290510
MISLBF


WESTERN AND NORTH CENTRAL NEBRASKA HOURLY WEATHER ROUNDUP
NATIONAL WEATHER SERVICE NORTH PLATTE NE
1200 AM CDT THU SEP 29 2016

NOTE: "FAIR" INDICATES FEW OR NO CLOUDS BELOW 12,000 FEET WITH NO
SIGNIFICANT WEATHER AND/OR OBSTRUCTIONS TO VISIBILITY.

NOTE: STATIONS NOT REPORTING VARIABLES SUCH AS SKY/WEATHER OR
PRESSURE ARE PROVIDED BY RAWS AND APRS NETWORKS AND ARE NOT UNDER
NATIONAL WEATHER SERVICE QUALITY CONTROL.

...OBSERVATIONS IN AND NEAR THE EASTERN PANHANDLE OF NEBRASKA...

CITY           SKY/WX    TMP DP  RH WIND       PRES   REMARKS
PINE RIDGE     CLEAR     54  34  46 E6        30.35R
CHADRON        CLEAR     60  41  49 SE6       30.33R
ALLIANCE       CLEAR     49  41  74 SE5       30.36R
SIDNEY         CLEAR     53  39  59 SE10      30.39R
CRESCENT LAKE    N/A     52  41  65 SE3         N/A
$$

...OBSERVATIONS IN NORTHERN NEBRASKA AND FAR SOUTHERN SOUTH DAKOTA...

CITY           SKY/WX    TMP DP  RH WIND       PRES   REMARKS
WINNER         FAIR      48  42  80 SE7       30.37S
VALENTINE      CLEAR     50  41  71 CALM      30.38R
THEDFORD       CLEAR     47  40  77 CALM      30.38S
AINSWORTH      CLEAR     46  42  86 SE5       30.38R
O`NEILL        CLOUDY    44  40  86 E7        30.39R
ORD            LGT RAIN  44  39  82 CALM      30.36R
BROKEN BOW     CLEAR     49  42  77 CALM      30.36R
VALENTINE NWR    N/A     48  41  78 SE6         N/A
BUTTE            N/A     49  43  80 E8          N/A
HALSEY           N/A     51  42  71 E6          N/A
EWING            N/A     46  43  89 CALM        N/A
$$

...OBSERVATIONS IN SOUTHWEST NEBRASKA AND FAR NORTHEAST COLORADO...

CITY           SKY/WX    TMP DP  RH WIND       PRES   REMARKS
WRAY           FAIR      57  39  51 E8        30.35
HOLYOKE        FAIR      54  41  62 SE6       30.37R
IMPERIAL       CLEAR     52  35  52 E8        30.36R
OGALLALA       CLEAR     52  38  60 E3        30.37R
NORTH PLATTE   CLEAR     45  36  70 E5        30.36R
MCCOOK         CLEAR     50  37  61 NE7       30.35R
LEXINGTON      CLEAR     48  42  77 CALM      30.37R
STAPLETON        N/A     46  38  73 CALM        N/A
GOTHENBURG       N/A     52  40  63 CALM        N/A
CALLAWAY         N/A     51  43  73 E5          N/A
$$

...OBSERVATIONS IN CENTRAL LINCOLN COUNTY AREA...

CITY           SKY/WX    TMP DP  RH WIND       PRES   REMARKS
N.P. AIRPORT   CLEAR     45  36  70 E5        30.36R
N.P. DOWNTOWN    N/A     52  38  59 CALM        N/A
N.P. SOUTHEAST   N/A     52  38  58 CALM        N/A
N.P. HILLCREST   N/A     52  40  64 E9          N/A
$$

...SOME OBSERVATIONS FROM AROUND THE REGION...

CITY           SKY/WX    TMP DP  RH WIND       PRES   REMARKS
DENVER         CLOUDY    57  33  40 S13       30.37R
LARAMIE        CLEAR     56  34  43 SE16G28   30.43F
CHEYENNE       CLEAR     57  34  41 SE10      30.43R
SCOTTSBLUFF    CLEAR     59  43  55 E13       30.34R
RAPID CITY     CLEAR     49  36  61 CALM      30.36R
BISMARCK       CLEAR     46  45  96 E5        30.38S
PIERRE         CLEAR     45  39  79 CALM      30.36R
SIOUX FALLS    CLEAR     46  44  93 CALM      30.39R
OMAHA          CLEAR     50  45  83 N7        30.34R
GRAND ISLAND   CLEAR     46  41  82 E5        30.37R
KANSAS CITY    PTCLDY    51  45  79 N8        30.28S
WICHITA        CLEAR     56  47  71 NE9       30.28R
OKLAHOMA CITY  PTCLDY    64  46  52 NE15      30.22R
DALLAS         PTCLDY    74  58  57 N10       30.09R
AMARILLO       CLEAR     59  48  67 SE9       30.31R
DODGE CITY     CLEAR     56  42  59 E12       30.31R
HAYS           CLEAR     52  37  58 NE3       30.33R
GOODLAND       CLEAR     51  41  68 SE7       30.36R
$$




USA.gov is the U.S. government's official web portal to all federal, state and local government web resources and services.